{"data":{"norad_id":57361,"intl_designator":"2023-099AK","name":"STARLINK-6340","alt_names":[],"object_type":"PAYLOAD","status":"ACTIVE","operator":null,"country":"US","launch_date":"2023-07-16","launch_site_code":"AFETR","launch_vehicle":null,"mission":null,"orbit_class":"UNKNOWN","rcs_meters":null,"size_class":null,"mass_kg":null,"dimensions":null,"purposes":["comms"],"wikipedia_slug":null,"has_3d_model":false,"image_url":null,"decayed_at":null,"tle_current":{"epoch":"2026-05-25T02:45:36.699840Z","epoch_age_seconds":59082,"freshness":"FRESH","line1":"1 57361U 23099AK  26145.11500810 -.00000052  00000+0  76323-5 0  9992","line2":"2 57361  43.0017 170.4015 0001105 294.2113  65.8623 15.27575819157885","mean_motion":15.27575819,"eccentricity":0.0001105,"inclination_deg":43.0017,"raan_deg":170.4015,"arg_perigee_deg":294.2113,"mean_anomaly_deg":65.8623,"bstar":7.6323e-6,"rev_number":15788,"period_min":94.267006723285,"perigee_km":482.3034530393,"apogee_km":483.81977793332,"semimajor_km":6861.1986154863,"source":"CELESTRAK","updated_at":"2026-05-25T13:38:18.292797Z"}}}